AI5BL Weather Reports


time (UTC)temp
C
wind
direction
speed
KPH
gust
KPH
rain 1hr
cm
rain 24hr
cm
rain mn
cm
humidity
%
barometer
mb
20260504090133 9 110 0.0 0.0 0.00 0.00 0.00 99 1019.9
20260504081604 8 109 0.0 0.0 0.00 0.00 0.00 99 1019.9
20260504081100 8 109 0.0 0.0 0.00 0.00 0.00 98 1019.8
20260504080557 8 109 0.0 0.0 0.00 0.00 0.00 98 1019.7
20260504050409 11 109 0.0 0.0 0.00 0.00 0.00 96 1021.0
20260504045907 11 109 0.0 0.0 0.00 0.00 0.00 96 1020.8
20260504045403 11 109 0.0 0.0 0.00 0.00 0.00 97 1020.8
20260504044859 11 109 0.0 0.0 0.00 0.00 0.00 97 1020.9
20260504044356 11 109 0.0 0.0 0.00 0.00 0.00 96 1021.0
20260504043854 11 109 0.0 0.0 0.00 0.00 0.00 96 1020.8
20260504043350 11 109 0.0 0.0 0.00 0.00 0.00 96 1021.1
20260504042848 11 109 0.0 0.0 0.00 0.00 0.00 96 1020.9
20260504042344 12 109 0.0 0.0 0.00 0.00 0.00 96 1020.9
20260504041840 12 109 0.0 0.0 0.00 0.00 0.00 96 1020.9
20260504041336 11 109 0.0 0.0 0.00 0.00 0.00 96 1021.3
20260504040833 11 109 0.0 0.0 0.00 0.00 0.00 96 1020.9
20260504040330 11 109 0.0 0.0 0.00 0.00 0.00 95 1021.2
20260504035826 11 109 0.0 0.0 0.00 0.00 0.00 94 1021.1
20260504035324 12 109 0.0 0.0 0.00 0.00 0.00 94 1021.1
20260504034820 12 109 0.0 0.0 0.00 0.00 0.00 94 1021.1
20260504034318 12 109 0.0 0.0 0.00 0.00 0.00 95 1021.1
20260504033815 11 109 0.0 0.0 0.00 0.00 0.00 94 1021.0
20260504033313 12 108 0.0 0.0 0.00 0.00 0.00 93 1021.2
20260504032809 12 109 0.0 0.0 0.00 0.00 0.00 92 1021.0
20260504032307 12 109 0.0 0.0 0.00 0.00 0.00 93 1021.0
20260504031804 12 109 0.0 0.0 0.00 0.00 0.00 94 1021.1
20260504031301 12 109 0.0 0.0 0.00 0.00 0.00 92 1021.1
20260504030756 13 109 0.0 0.0 0.00 0.00 0.00 92 1021.1
20260504030254 13 109 0.0 0.0 0.00 0.00 0.00 90 1020.9
20260504025750 13 109 0.0 0.0 0.00 0.00 0.00 90 1020.9
20260504025247 13 109 0.0 0.0 0.00 0.00 0.00 90 1021.0
20260504024744 13 109 0.0 0.0 0.00 0.00 0.00 91 1021.0
20260504024240 13 109 0.0 0.0 0.00 0.00 0.00 93 1021.0
20260504023737 13 109 0.0 0.0 0.00 0.00 0.00 93 1020.9
20260504023233 13 108 0.0 0.0 0.00 0.00 0.00 93 1020.9
20260504022730 13 108 0.0 0.0 0.00 0.00 0.00 93 1021.0
20260504022226 13 109 0.0 0.0 0.00 0.00 0.00 93 1020.8
20260504021723 13 108 0.0 0.0 0.00 0.00 0.00 93 1020.7
20260504021220 13 104 0.0 0.0 0.00 0.00 0.00 91 1020.7
20260504020718 14 105 0.0 0.0 0.00 0.00 0.00 90 1020.6
20260504020214 15 104 0.0 0.0 0.00 0.00 0.00 87 1020.6
20260504015711 15 106 0.0 0.0 0.00 0.00 0.00 86 1020.6
20260504015207 15 105 0.0 0.0 0.00 0.00 0.00 86 1020.6
20260504014702 15 105 0.0 0.0 0.00 0.00 0.00 87 1020.5
20260504014200 14 104 0.0 0.0 0.00 0.00 0.00 87 1020.3
20260504013657 15 94 0.0 0.0 0.00 0.00 0.00 86 1020.2
20260504013154 15 96 0.0 0.0 0.00 0.00 0.00 85 1020.2
20260504012651 15 96 0.0 0.0 0.00 0.00 0.00 84 1020.2
20260504012149 15 96 0.0 0.0 0.00 0.00 0.00 83 1020.2
20260504011645 15 96 0.0 0.0 0.00 0.00 0.00 81 1020.1
20260504011142 16 96 0.0 0.0 0.00 0.00 0.00 79 1020.2
20260504010638 16 96 0.0 0.0 0.00 0.00 0.00 75 1019.9
20260504010134 16 96 0.0 0.0 0.00 0.00 0.00 77 1019.8
20260504005631 17 96 0.0 0.0 0.00 0.00 0.00 74 1019.9
20260504005127 17 96 0.0 0.0 0.00 0.00 0.00 72 1019.9
20260504004626 17 96 0.0 0.0 0.00 0.00 0.00 70 1019.8
20260504004123 17 96 0.0 0.0 0.00 0.00 0.00 69 1019.7
20260504003619 18 96 0.0 0.0 0.00 0.00 0.00 68 1019.9
20260504003116 18 96 0.0 0.0 0.00 0.00 0.00 63 1019.7
20260504002613 18 96 0.0 0.0 0.00 0.00 0.00 61 1019.7
20260504002110 18 96 0.0 0.0 0.00 0.00 0.00 59 1019.7
20260504001608 18 96 0.0 0.0 0.00 0.00 0.00 62 1019.8
20260504001103 19 96 0.0 0.0 0.00 0.00 0.00 60 1019.7
20260504000601 19 96 0.0 0.0 0.00 0.00 0.00 58 1019.6
20260504000058 20 96 0.0 0.0 0.00 0.00 0.00 58 1019.6
20260503235557 20 96 0.0 0.0 0.00 0.00 0.00 56 1019.7
20260503235053 20 96 0.0 0.0 0.00 0.00 0.00 57 1019.8
20260503234551 20 96 0.0 0.0 0.00 0.00 0.00 53 1019.7
20260503234048 20 96 0.0 0.0 0.00 0.00 0.00 53 1019.8
20260503233544 20 96 0.0 0.0 0.00 0.00 0.00 53 1019.9
20260503233040 20 96 0.0 0.0 0.00 0.00 0.00 54 1019.9
20260503232538 21 103 0.0 0.0 0.00 0.00 0.00 51 1020.0
20260503232035 21 100 0.0 1.6 0.00 0.00 0.00 53 1020.0
20260503231533 21 101 0.0 0.0 0.00 0.00 0.00 59 1020.0
20260503231029 21 108 0.0 0.0 0.00 0.00 0.00 50 1019.8
20260503230526 21 106 0.0 0.0 0.00 0.00 0.00 49 1019.9
20260503230024 21 107 0.0 1.6 0.00 0.00 0.00 47 1019.8
20260503225520 21 94 0.0 0.0 0.00 0.00 0.00 50 1019.6
20260503225015 21 106 0.0 1.6 0.00 0.00 0.00 59 1019.9
20260503224513 21 106 0.0 0.0 0.00 0.00 0.00 60 1019.7
20260503224006 21 102 0.0 0.0 0.00 0.00 0.00 55 1019.7
20260503223503 21 125 1.6 1.6 0.00 0.00 0.00 50 1020.0
20260503222958 22 106 0.0 3.2 0.00 0.00 0.00 45 1020.0
20260503222457 22 99 0.0 0.0 0.00 0.00 0.00 44 1020.0
20260503221954 22 72 0.0 1.6 0.00 0.00 0.00 40 1020.0
20260503221452 22 95 0.0 0.0 0.00 0.00 0.00 41 1020.0
20260503220949 22 85 0.0 0.0 0.00 0.00 0.00 44 1020.1
20260503220445 22 102 0.0 1.6 0.00 0.00 0.00 48 1020.3
20260503215943 22 31 1.6 3.2 0.00 0.00 0.00 44 1020.2
20260503215439 22 76 0.0 1.6 0.00 0.00 0.00 42 1020.3
20260503214937 22 110 0.0 3.2 0.00 0.00 0.00 41 1020.3
20260503214435 22 122 1.6 1.6 0.00 0.00 0.00 60 1020.5
20260503213932 22 132 0.0 1.6 0.00 0.00 0.00 52 1020.6
20260503213430 22 101 0.0 0.0 0.00 0.00 0.00 55 1020.4
20260503212926 22 121 1.6 1.6 0.00 0.00 0.00 51 1020.6
20260503212423 22 66 0.0 1.6 0.00 0.00 0.00 45 1020.7
20260503211921 22 123 1.6 3.2 0.00 0.00 0.00 42 1020.6
20260503211417 22 117 0.0 1.6 0.00 0.00 0.00 42 1020.9
20260503210913 23 77 0.0 0.0 0.00 0.00 0.00 46 1020.9
20260503210410 23 353 1.6 6.4 0.00 0.00 0.00 44 1020.9
20260503205904 23 95 0.0 1.6 0.00 0.00 0.00 47 1020.9
20260503205402 23 84 0.0 0.0 0.00 0.00 0.00 42 1020.9
20260503204858 23 107 0.0 1.6 0.00 0.00 0.00 48 1021.0
20260503204355 23 93 0.0 1.6 0.00 0.00 0.00 43 1021.0
20260503203852 23 87 0.0 1.6 0.00 0.00 0.00 42 1021.2
20260503203350 23 97 0.0 1.6 0.00 0.00 0.00 43 1021.2
20260503202846 23 26 1.6 3.2 0.00 0.00 0.00 48 1021.3
20260503202345 23 27 4.8 4.8 0.00 0.00 0.00 42 1021.4
20260503201843 23 353 4.8 4.8 0.00 0.00 0.00 41 1021.5
20260503201339 23 64 1.6 6.4 0.00 0.00 0.00 43 1021.5
20260503200837 23 101 0.0 1.6 0.00 0.00 0.00 41 1021.7
20260503200332 23 131 0.0 3.2 0.00 0.00 0.00 41 1021.7
20260503195830 25 77 0.0 3.2 0.00 0.00 0.00 41 1021.9
20260503195326 23 93 0.0 1.6 0.00 0.00 0.00 44 1021.8
20260503194824 23 208 1.6 1.6 0.00 0.00 0.00 42 1021.9
20260503194320 23 99 0.0 3.2 0.00 0.00 0.00 42 1022.1
20260503193816 24 77 1.6 1.6 0.00 0.00 0.00 39 1022.2
20260503193312 25 252 1.6 11.3 0.00 0.00 0.00 41 1022.5
20260503192808 24 76 0.0 1.6 0.00 0.00 0.00 41 1022.4
20260503192305 24 127 1.6 3.2 0.00 0.00 0.00 42 1022.6
20260503191800 23 93 0.0 1.6 0.00 0.00 0.00 43 1022.5
20260503191257 23 120 0.0 1.6 0.00 0.00 0.00 41 1022.6
20260503190754 24 123 6.4 6.4 0.00 0.00 0.00 39 1022.8
20260503190251 24 40 1.6 4.8 0.00 0.00 0.00 37 1022.7
20260503185748 23 148 3.2 4.8 0.00 0.00 0.00 46 1022.9
20260503185244 24 129 1.6 1.6 0.00 0.00 0.00 42 1022.9
20260503184738 23 97 0.0 1.6 0.00 0.00 0.00 42 1023.0
20260503184235 23 78 3.2 6.4 0.00 0.00 0.00 41 1022.9
20260503183731 24 47 1.6 3.2 0.00 0.00 0.00 37 1023.0
20260503183229 23 76 1.6 3.2 0.00 0.00 0.00 44 1022.9
20260503182726 23 149 3.2 3.2 0.00 0.00 0.00 47 1023.2
20260503182225 23 24 4.8 11.3 0.00 0.00 0.00 39 1023.3
20260503181721 22 53 4.8 9.7 0.00 0.00 0.00 41 1023.5
20260503181219 23 35 1.6 1.6 0.00 0.00 0.00 44 1023.4
20260503180715 24 55 1.6 4.8 0.00 0.00 0.00 41 1023.3
20260503180213 23 108 1.6 4.8 0.00 0.00 0.00 39 1023.5
20260503175710 24 120 1.6 1.6 0.00 0.00 0.00 42 1023.5
20260503175208 24 76 1.6 3.2 0.00 0.00 0.00 44 1023.5
20260503174703 23 98 3.2 3.2 0.00 0.00 0.00 40 1023.6
20260503174201 25 136 1.6 1.6 0.00 0.00 0.00 36 1023.6
20260503173656 25 136 1.6 1.6 0.00 0.00 0.00 36 1023.7
20260503173153 25 94 0.0 0.0 0.00 0.00 0.00 38 1023.9
20260503172650 24 93 1.6 1.6 0.00 0.00 0.00 41 1023.9
20260503172147 23 90 1.6 3.2 0.00 0.00 0.00 39 1024.0
20260503171643 23 111 1.6 1.6 0.00 0.00 0.00 42 1024.1
20260503171141 23 116 3.2 4.8 0.00 0.00 0.00 38 1024.1
20260503170638 25 102 1.6 1.6 0.00 0.00 0.00 40 1024.2
20260503170134 24 117 1.6 1.6 0.00 0.00 0.00 42 1024.4
20260503150526 18 107 0.0 0.0 0.00 0.00 0.00 60 1025.0
20260503131419 8 352 0.0 0.0 0.00 0.00 0.00 99 1024.0
20260503130915 8 352 0.0 0.0 0.00 0.00 0.00 99 1024.1
20260503130413 8 352 0.0 0.0 0.00 0.00 0.00 99 1024.1
20260503110817 5 353 0.0 0.0 0.00 0.00 0.00 99 1022.8
20260503110314 6 353 0.0 0.0 0.00 0.00 0.00 99 1023.0
20260503100240 6 353 0.0 0.0 0.00 0.00 0.00 99 1022.6